This is the latest recevied weather packets stored in our database for station/object KT2UU-13. If no packets are shown the sender has not sent any weather packets the latest 10 day(s).
| Time | Temp. | Humidity | Pressure | Rain* | Wind** | Luminosity | Snow |
|---|---|---|---|---|---|---|---|
| 1777956539 | 14.44° C | 68% | 1015.7 hPa | 0 mm | - | - | - |
| 1777956236 | 14.44° C | 68% | 1015.7 hPa | 0 mm | - | - | - |
| 1777955933 | 14.44° C | 68% | 1015.6 hPa | 0 mm | - | - | - |
| 1777955629 | 14.44° C | 68% | 1015.6 hPa | 0 mm | - | - | - |
| 1777955325 | 15° C | 67% | 1015.5 hPa | 0 mm | - | - | - |
| 1777955022 | 15° C | 66% | 1015.6 hPa | 0 mm | - | - | - |
| 1777954719 | 15° C | 66% | 1015.6 hPa | 0 mm | - | - | - |
| 1777954416 | 15° C | 65% | 1015.8 hPa | 0 mm | - | - | - |
| 1777954113 | 15.56° C | 67% | 1015.6 hPa | 0 mm | - | - | - |
| 1777953811 | 16.11° C | 65% | 1015.6 hPa | 0 mm | - | - | - |
| 1777953508 | 16.11° C | 63% | 1015.4 hPa | 0 mm | - | - | - |
| 1777953203 | 16.67° C | 63% | 1015.7 hPa | 0 mm | - | - | - |
| 1777952901 | 17.22° C | 60% | 1015.6 hPa | 0 mm | - | - | - |
| 1777952597 | 17.22° C | 59% | 1015.8 hPa | 0 mm | - | - | - |
| 1777952295 | 16.67° C | 61% | 1015.7 hPa | 0 mm | - | - | - |
| 1777951991 | 16.67° C | 60% | 1015.9 hPa | 0 mm | - | - | - |
| 1777951690 | 16.11° C | 62% | 1015.7 hPa | 0 mm | - | - | - |
| 1777951385 | 16.11° C | 63% | 1015.8 hPa | 0 mm | - | - | - |
| 1777951083 | 16.11° C | 63% | 1015.7 hPa | 0 mm | - | - | - |
| 1777950779 | 16.67° C | 62% | 1015.5 hPa | 0 mm | - | - | - |
| 1777950477 | 16.67° C | 61% | 1015.7 hPa | 0 mm | - | - | - |
| 1777950173 | 17.22° C | 61% | 1015.5 hPa | 0 mm | - | - | - |
| 1777949868 | 17.22° C | 61% | 1015.6 hPa | 0 mm | - | - | - |
| 1777949566 | 16.67° C | 60% | 1015.6 hPa | 0 mm | - | - | - |
| 1777949264 | 16.11° C | 61% | 1015.6 hPa | 0 mm | - | - | - |
* Rain latest hour (hover to see other rain measurements)
** Current wind speed in m/s (hover to see current wind gust speed)